Skip Page Navigation
NASA JPL Caltech
NASA Logo - Jet Propulsion Laboratory + View the NASA Portal
+ Near-Earth Object (NEO) Program
Search JPL
JPL Home Earth Solar System Stars & Galaxies Technology
JPL Solar System Dynamics
BODIES ORBITS EPHEMERIDES TOOLS PHYSICAL DATA DISCOVERY FAQ SITE MAP
JPL Small-Body Database Browser
Search: [ help ]  
11068 (1992 EA)
Classification: Main-belt Asteroid          SPK-ID: 2011068
Ephemeris | Orbit Diagram | Orbital Elements | Physical Parameters | Discovery Circumstances | Close-Approach Data ]

[ show orbit diagram ]
Orbital Elements at Epoch 2457000.5 (2014-Dec-09.0) TDB
Reference: JPL 14 (heliocentric ecliptic J2000)
 Element Value Uncertainty (1-sigma)   Units 
e .1123330257295825 4.6662e-08  
a 2.204804800456774 1.0691e-08 AU
q 1.957132406078356 1.0418e-07 AU
i 1.073415341796413 4.9222e-06 deg
node 338.0473429350822 0.00025443 deg
peri 261.0424073542552 0.00025541 deg
M 282.4208968089372 2.4209e-05 deg
tp 2457258.189011583372
(2015-Aug-23.68901158)
8.096e-05 JED
period 1195.786498608315
3.27
8.6977e-06
2.381e-08
d
yr
n .3010570870460377 2.1898e-09 deg/d
Q 2.452477194835192 1.1892e-08 AU
  Orbit Determination Parameters
   # obs. used (total)      1313  
   data-arc span      8397 days (22.99 yr)  
   first obs. used      1992-03-01  
   last obs. used      2015-02-26  
   planetary ephem.      DE431  
   SB-pert. ephem.      SB431-BIG16  
   condition code      0  
   fit RMS      .51552  
   data source      ORB  
   producer      Otto Matic  
   solution date      2015-Mar-09 14:25:18  

Additional Information
 Earth MOID = .946766 AU 
 T_jup = 3.653 
[ show covariance matrix ]

Ephemeris | Orbit Diagram | Orbital Elements | Physical Parameters | Discovery Circumstances | Close-Approach Data ]

Physical Parameter Table
Parameter Symbol Value Units Sigma Reference Notes
absolute magnitude H 14.1 mag n/a MPO266017  

11068 (1992 EA)          Discovered 1992-Mar-02 by Ueda, S., Kaneda, H. at Kushiro
Reference: 19990728/Numbers.arcLast Updated: 2004-04-19

[ show close-approach data ]
Alternate Designations
 1992 EA = 1993 RF17 
Ephemeris | Orbit Diagram | Orbital Elements | Physical Parameters | Discovery Circumstances | Close-Approach Data ]
ABOUT SSD CREDITS/AWARDS PRIVACY/COPYRIGHT GLOSSARY LINKS
FirstGov 2015-Mar-28 12:16 UT
(server date/time)  
NASA Home Page
Site Manager:   Ryan S. Park
Webmaster  Alan B. Chamberlin